Weather History for Alma, MI

Change the Weather History Date:

Saturday, August 17, 2013

  Actual Average Record
Temperature  
Mean Temperature 64 °F -  
Max Temperature 82 °F 82 °F 91 °F (1955)
Min Temperature 47 °F 58 °F 42 °F (1954)
Growing Degree Days 14 (Base 50)    
Moisture  
Dew Point 49 °F    
Average Humidity 64    
Maximum Humidity 97    
Minimum Humidity 26    
Precipitation  
Precipitation 0.00 in - - ()
Sea Level Pressure  
Sea Level Pressure 30.24 in    
Wind  
Wind Speed 1 mph (ESE)    
Max Wind Speed 12 mph    
Max Gust Speed 17 mph    
Visibility 9 miles    
Events      
Averages and records for this station are not official NWS values.
T = Trace of Precipitation, MM = Missing Value Source: NWS Daily Summary

Daily Weather History Graph

Daily Weather History Graph

Search for Another Location

Airport:

Trip Planner

Search our weather history database for the weather conditions in past years. The results will help you decide how hot, cold, wet, or windy it might be!

Date:

Astronomy

Aug. 17, 2013 Rise Set
Actual Time 6:46 AM EDT 8:38 PM EDT
Civil Twilight 6:15 AM EDT 9:08 PM EDT
Nautical Twilight 5:38 AM EDT 9:46 PM EDT
Astronomical Twilight 4:57 AM EDT 10:26 PM EDT
Moon 5:55 PM EDT (8/17) 2:45 AM EDT (8/17)
Length of Visible Light 14h 52m
Length of Day
13h 51m
Waxing Gibbous, 84% of the Moon is Illuminated
Aug 17
Waxing Gibbous
Aug 20
Full
Aug 28
Last Quarter
Sep 5
New
Sep 12
First Quarter

Hourly Weather History & Observations

Time (EDT) Temp. Dew Point Humidity Pressure Visibility Wind Dir Wind Speed Gust Speed Precip Events Conditions
12:13 AM 52.9 °F 50.2 °F 91% 30.22 in 10.0 mi Calm Calm - N/A   Clear
12:29 AM 53.2 °F 50.9 °F 92% 30.22 in 10.0 mi Calm Calm - N/A   Clear
12:50 AM 53.2 °F 51.3 °F 93% 30.22 in 10.0 mi Calm Calm - N/A   Clear
1:10 AM 52.3 °F 50.7 °F 94% 30.23 in 10.0 mi Calm Calm - N/A   Clear
1:31 AM 52.9 °F 51.3 °F 94% 30.22 in 10.0 mi Calm Calm - N/A   Clear
1:51 AM 50.9 °F 49.3 °F 94% 30.23 in 10.0 mi Calm Calm - N/A   Clear
2:11 AM 50.5 °F 49.1 °F 95% 30.23 in 10.0 mi Calm Calm - N/A   Clear
2:31 AM 51.8 °F 50.4 °F 95% 30.23 in 10.0 mi Calm Calm - N/A   Clear
2:51 AM 50.0 °F 48.6 °F 95% 30.24 in 10.0 mi Calm Calm - N/A   Clear
3:11 AM 49.1 °F 47.5 °F 94% 30.24 in 10.0 mi Calm Calm - N/A   Clear
3:31 AM 50.2 °F 48.9 °F 95% 30.24 in 7.0 mi Calm Calm - N/A   Clear
3:46 AM 50.5 °F 49.3 °F 95% 30.24 in 10.0 mi Calm Calm - N/A   Clear
4:09 AM 50.0 °F 48.7 °F 95% 30.24 in 10.0 mi Calm Calm - N/A   Clear
4:29 AM 49.3 °F 48.2 °F 96% 30.24 in 7.0 mi Calm Calm - N/A   Clear
4:49 AM 48.9 °F 47.7 °F 95% 30.25 in 7.0 mi Calm Calm - N/A   Clear
5:09 AM 48.9 °F 47.7 °F 95% 30.25 in 0.8 mi Calm Calm - N/A   Mist
5:29 AM 48.4 °F 47.5 °F 97% 30.25 in 1.2 mi Calm Calm - N/A   Mist
5:49 AM 48.4 °F 47.5 °F 97% 30.25 in 10.0 mi Calm Calm - N/A   Clear
6:09 AM 48.7 °F 47.7 °F 96% 30.26 in 7.0 mi Calm Calm - N/A   Clear
6:32 AM 48.9 °F 48.0 °F 97% 30.26 in 7.0 mi Calm Calm - N/A   Clear
6:52 AM 48.0 °F 46.9 °F 96% 30.26 in 0.8 mi Calm Calm - N/A   Mist
7:12 AM 47.8 °F 46.9 °F 97% 30.27 in 1.5 mi Calm Calm - N/A   Mist
7:32 AM 49.6 °F 48.7 °F 97% 30.27 in 10.0 mi Calm Calm - N/A   Clear
7:52 AM 52.2 °F 51.1 °F 96% 30.27 in 10.0 mi Calm Calm - N/A   Clear
8:12 AM 55.6 °F 54.1 °F 95% 30.27 in 10.0 mi Calm Calm - N/A   Clear
8:32 AM 58.5 °F 54.9 °F 88% 30.28 in 10.0 mi Calm Calm - N/A   Scattered Clouds
8:52 AM 60.8 °F 55.0 °F 81% 30.28 in 10.0 mi Calm Calm - N/A   Clear
9:13 AM 64.2 °F 55.4 °F 73% 30.28 in 10.0 mi Calm Calm - N/A   Clear
9:33 AM 67.3 °F 55.8 °F 66% 30.28 in 10.0 mi Calm Calm - N/A   Clear
9:48 AM 68.9 °F 56.5 °F 65% 30.28 in 10.0 mi Calm Calm - N/A   Clear
10:10 AM 72.0 °F 54.3 °F 54% 30.28 in 10.0 mi SSE 3.5 mph - N/A   Clear
10:30 AM 73.4 °F 56.1 °F 55% 30.28 in 10.0 mi Calm Calm - N/A   Clear
10:50 AM 75.0 °F 52.3 °F 45% 30.28 in 10.0 mi SE 3.5 mph - N/A   Clear
11:10 AM 76.6 °F 51.8 °F 42% 30.28 in 10.0 mi Calm Calm - N/A   Clear
11:30 AM 77.5 °F 50.4 °F 38% 30.28 in 10.0 mi South 3.5 mph - N/A   Clear
11:51 AM 77.9 °F 47.8 °F 35% 30.28 in 10.0 mi SSE 3.5 mph - N/A   Clear
12:11 PM 78.6 °F 47.7 °F 34% 30.28 in 10.0 mi Calm Calm - N/A   Clear
12:33 PM 80.6 °F 45.9 °F 29% 30.27 in 10.0 mi SE 5.8 mph 17.3 mph N/A   Scattered Clouds
12:53 PM 81.1 °F 46.6 °F 30% 30.27 in 10.0 mi East 8.1 mph - N/A   Clear
1:13 PM 81.0 °F 44.1 °F 27% 30.26 in 10.0 mi ESE 5.8 mph - N/A   Clear
1:33 PM 80.4 °F 44.8 °F 28% 30.26 in 10.0 mi SSE 4.6 mph - N/A   Clear
1:53 PM 81.1 °F 44.4 °F 27% 30.25 in 10.0 mi East 5.8 mph - N/A   Clear
2:08 PM 79.9 °F 45.5 °F 30% 30.25 in 10.0 mi SSE 4.6 mph - N/A   Clear
2:28 PM 81.5 °F 45.5 °F 28% 30.24 in 10.0 mi Calm Calm - N/A   Clear
2:49 PM 81.3 °F 46.4 °F 29% 30.24 in 10.0 mi East 6.9 mph - N/A   Clear
3:09 PM 81.7 °F 44.1 °F 26% 30.22 in 10.0 mi Calm Calm - N/A   Clear
3:29 PM 82.2 °F 45.9 °F 28% 30.22 in 10.0 mi East 11.5 mph - N/A   Clear
3:51 PM 82.4 °F 43.9 °F 26% 30.22 in 10.0 mi NE 8.1 mph - N/A   Clear
4:11 PM 81.7 °F 44.4 °F 27% 30.22 in 10.0 mi East 9.2 mph - N/A   Clear
4:31 PM 82.2 °F 45.1 °F 27% 30.22 in 10.0 mi ESE 11.5 mph - N/A   Clear
4:51 PM 81.0 °F 45.9 °F 29% 30.22 in 10.0 mi SE 5.8 mph - N/A   Clear
5:11 PM 81.7 °F 45.9 °F 28% 30.22 in 10.0 mi ESE 4.6 mph - N/A   Clear
5:32 PM 81.7 °F 45.9 °F 28% 30.21 in 10.0 mi ESE 6.9 mph - N/A   Clear
5:52 PM 82.0 °F 45.9 °F 28% 30.21 in 10.0 mi East 8.1 mph - N/A   Clear
6:07 PM 81.5 °F 44.8 °F 27% 30.21 in 10.0 mi East 6.9 mph - N/A   Clear
6:29 PM 81.3 °F 46.6 °F 29% 30.21 in 10.0 mi East 6.9 mph - N/A   Clear
6:49 PM 79.9 °F 46.2 °F 30% 30.20 in 10.0 mi ESE 3.5 mph - N/A   Clear
7:09 PM 79.3 °F 46.8 °F 32% 30.20 in 10.0 mi ESE 4.6 mph - N/A   Clear
7:29 PM 78.4 °F 46.9 °F 33% 30.20 in 10.0 mi ESE 4.6 mph - N/A   Clear
7:50 PM 77.0 °F 47.8 °F 36% 30.20 in 10.0 mi ESE 4.6 mph - N/A   Clear
8:10 PM 74.8 °F 49.5 °F 41% 30.20 in 10.0 mi ESE 4.6 mph - N/A   Clear
8:30 PM 69.8 °F 53.1 °F 55% 30.21 in 10.0 mi SE 3.5 mph - N/A   Clear
8:50 PM 68.0 °F 53.1 °F 59% 30.21 in 10.0 mi Calm Calm - N/A   Clear
9:10 PM 64.2 °F 53.4 °F 68% 30.21 in 10.0 mi Calm Calm - N/A   Clear
9:32 PM 61.7 °F 53.8 °F 75% 30.21 in 10.0 mi Calm Calm - N/A   Clear
9:52 PM 59.4 °F 52.2 °F 77% 30.22 in 10.0 mi Calm Calm - N/A   Clear
10:12 PM 59.7 °F 53.4 °F 80% 30.22 in 10.0 mi Calm Calm - N/A   Clear
10:32 PM 59.0 °F 54.0 °F 83% 30.22 in 10.0 mi Calm Calm - N/A   Clear
10:53 PM 58.3 °F 54.0 °F 86% 30.22 in 10.0 mi Calm Calm - N/A   Clear
11:13 PM 57.0 °F 53.2 °F 87% 30.22 in 10.0 mi Calm Calm - N/A   Clear
11:33 PM 57.0 °F 53.2 °F 87% 30.22 in 10.0 mi Calm Calm - N/A   Clear
11:53 PM 56.7 °F 53.4 °F 89% 30.21 in 10.0 mi Calm Calm - N/A   Clear